Theta_e
289 289 288 288 288 288 287 286 286 285 285 285 284 284 284 284 284 283 283 282 281 281 280 280 280 279 280 279 279 278 278 278 277 277 277 277 276 276 276 276 275 275
289 289 288 288 288 287 287 287 286 286 285 285 285 285 284 284 283 283 282 281 281 280 280 280 279 279 279 278 278 278 277 277 277 278 276 276 276 276 276 275 275 275
289 288 288 287 287 287 287 286 286 286 285 285 285 284 284 284 283 282 282 281 280 280 279 279 279 279 278 278 278 278 277 277 276 277 276 276 276 275 275 275 275 275
289 289 288 288 288 287 286 285 285 285 285 284 284 284 284 283 282 282 281 281 280 279 279 279 279 278 278 278 277 277 277 276 276 276 276 275 275 275 275 275 275 275
288 288 288 288 287 287 285 285 284 285 284 284 284 283 283 282 281 281 280 280 280 279 279 278 278 278 278 277 277 276 276 276 276 276 275 275 275 275 275 275 274 274
288 288 288 287 287 286 285 285 284 284 284 283 283 283 282 282 281 281 280 280 279 279 278 278 278 277 277 277 276 276 276 275 275 275 275 274 274 275 275 275 274 274
288 287 287 287 286 285 285 284 284 284 284 283 282 282 282 281 281 281 280 280 279 279 278 278 277 277 277 277 276 275 275 275 275 275 274 274 274 273 274 274 274 273
287 287 286 286 285 285 284 284 284 284 283 282 282 282 281 281 281 281 280 279 279 278 278 277 277 277 276 276 276 275 274 274 274 274 274 273 273 273 273 273 273 272
287 286 285 285 285 284 284 284 284 283 282 282 281 281 281 281 281 280 280 279 278 278 277 277 277 276 276 276 275 275 274 274 274 274 273 273 272 272 272 272 271 271
286 285 284 284 284 285 284 284 283 282 282 281 281 281 280 280 280 279 279 278 278 277 277 276 276 276 275 275 275 275 274 274 273 273 273 273 272 272 271 271 271 271
285 285 284 284 284 285 284 284 283 282 281 281 280 280 280 279 279 279 278 278 277 277 276 276 276 275 275 275 274 274 274 273 273 273 272 272 272 271 272 271 271 270
285 284 284 284 284 284 284 283 282 281 281 281 280 279 279 279 278 278 278 277 277 277 276 276 275 275 274 274 274 273 273 273 272 272 272 271 271 271 271 271 270 270
285 284 285 285 285 284 284 283 282 281 280 280 280 279 278 278 278 277 277 277 277 276 275 275 274 274 274 273 273 272 272 272 271 271 271 270 270 270 271 271 270 270
285 285 285 285 284 284 283 282 282 281 280 280 279 279 278 278 277 277 276 276 276 275 275 274 274 273 273 272 272 271 271 271 271 270 270 270 270 270 270 270 270 270
285 285 285 284 283 283 282 282 281 280 280 279 278 278 278 277 277 276 275 275 274 274 273 273 273 273 272 272 271 271 271 270 270 270 270 269 269 269 270 270 270 271
285 284 284 283 283 282 282 281 281 280 279 278 277 277 277 276 276 275 275 274 273 272 272 272 272 272 274 276 275 271 270 270 270 270 270 270 270 270 270 271 271 271
285 284 283 283 283 282 282 281 280 279 278 277 277 276 275 275 275 274 273 273 273 272 271 271 272 272 277 278 278 277 271 270 269 270 270 270 270 270 270 271 272 272
285 284 283 282 282 281 280 280 279 277 277 276 275 275 274 274 273 273 273 272 272 271 271 271 271 275 279 280 279 279 275 270 270 270 270 271 271 271 272 273 273 273
284 283 282 281 281 281 280 278 277 277 276 275 275 274 273 272 273 273 272 272 271 271 270 271 270 277 280 281 280 280 278 273 270 271 271 271 271 272 273 273 274 274
283 282 281 281 280 279 278 277 276 276 276 275 274 273 272 272 272 272 271 271 271 271 270 270 270 276 280 281 281 280 279 275 271 271 272 273 273 274 274 274 274 274
282 281 281 280 279 278 277 276 276 276 275 274 273 273 272 272 271 271 271 270 270 270 270 270 270 277 281 282 282 281 280 276 272 273 274 274 274 275 275 275 275 275
282 281 280 279 278 277 276 276 275 275 274 274 273 272 272 272 271 271 270 270 270 270 270 269 270 277 281 282 282 282 282 276 274 274 274 274 274 275 275 275 275 274
282 281 280 278 277 276 275 275 275 274 274 273 272 272 272 271 271 271 270 270 270 270 270 270 270 276 281 282 282 283 281 276 275 274 274 274 274 274 274 274 273 273
282 281 279 278 276 276 275 276 275 275 274 272 272 271 271 271 270 270 270 270 270 269 270 270 270 275 282 282 282 282 280 275 275 273 273 272 272 273 272 272 272 274
279 280 279 277 276 276 276 275 275 274 273 272 272 272 271 271 270 270 269 269 270 270 272 271 270 275 281 282 282 282 279 275 274 273 272 272 271 271 272 271 272 273
278 279 279 278 277 276 276 275 275 273 272 271 272 271 271 270 270 269 269 269 270 270 270 271 270 274 278 281 281 281 280 274 273 272 271 271 271 270 270 271 271 272
Wind_Speed
13 12 14 13 13 12 13 14 13 14 13 12 13 13 13 12 11 13 12 10 10 10 10 9 8 8 7 7 7 6 6 6 5 6 6 7 7 7 6 5 4 4
17 15 11 11 10 10 12 14 14 15 14 14 12 11 10 10 11 12 12 11 10 11 10 9 9 9 9 8 8 8 7 7 7 5 7 7 7 7 6 6 5 4
15 14 15 16 16 15 14 11 12 13 13 13 11 10 11 11 12 11 11 11 11 10 11 10 10 9 9 9 9 9 8 8 8 6 7 7 7 7 6 6 4 4
17 17 16 16 13 12 10 10 11 11 11 11 15 13 11 10 11 13 11 12 11 11 10 10 11 9 9 10 9 8 8 8 7 7 7 6 6 6 6 5 4 3
17 16 14 14 12 10 10 12 13 13 14 14 11 12 12 12 13 13 12 12 12 12 11 12 10 10 10 10 10 9 8 8 8 8 7 7 5 6 5 5 4 4
13 14 15 14 13 12 12 14 13 12 12 12 15 12 13 14 14 15 15 15 13 13 12 12 12 10 11 11 10 9 9 8 8 8 7 7 6 5 5 6 5 5
16 16 16 14 12 13 13 13 11 12 12 12 8 13 14 15 16 16 16 15 15 14 14 13 13 12 11 10 10 9 8 8 8 8 8 7 7 6 5 6 6 5
15 13 12 11 13 13 14 13 12 12 12 10 14 13 13 15 15 14 14 15 15 15 14 13 13 13 12 11 11 10 9 7 9 9 8 8 7 7 6 5 5 5
14 12 12 14 15 13 14 15 13 11 10 13 12 12 12 13 14 14 15 15 15 15 14 14 14 13 11 11 11 12 11 10 9 9 10 10 9 8 8 6 6 6
13 12 13 14 15 15 16 15 13 12 11 12 12 10 13 12 12 13 13 14 15 14 14 14 13 12 11 11 12 12 11 11 10 10 9 9 9 8 8 7 7 6
14 13 14 15 16 15 16 15 14 13 12 14 12 12 12 11 12 12 13 14 15 15 14 14 13 13 13 12 10 10 10 10 11 10 9 9 8 8 8 8 7 7
15 14 16 18 18 16 16 15 13 12 13 12 13 14 13 12 14 13 14 15 13 13 13 13 12 12 12 12 12 11 10 9 9 9 9 8 8 8 8 7 7 7
16 17 18 18 18 17 14 13 14 15 14 15 14 14 14 14 13 13 12 13 13 12 13 13 12 11 11 11 11 11 11 11 10 9 8 8 8 8 7 7 6 6
17 18 18 17 15 13 13 13 13 13 14 13 13 15 15 16 16 15 12 11 12 12 12 11 12 12 11 11 11 11 10 10 10 10 9 8 8 7 7 7 7 7
16 15 13 12 13 14 14 14 15 15 13 13 13 14 12 14 13 14 14 12 11 11 12 11 12 12 11 12 12 11 10 11 11 10 10 9 8 8 7 7 7 7
15 13 13 13 14 15 16 16 14 14 14 14 14 14 13 12 13 13 13 14 14 12 11 11 11 9 12 20 16 12 12 10 9 9 10 8 9 8 8 8 9 8
12 12 13 15 16 14 12 13 14 13 13 13 13 12 13 13 13 14 13 13 14 14 14 12 11 10 21 22 22 21 13 11 11 10 9 9 9 9 9 9 9 10
13 13 13 14 12 14 13 13 12 12 13 13 13 13 13 12 14 15 15 13 12 13 13 13 11 15 24 24 24 24 18 11 10 10 10 9 10 10 9 9 9 9
12 13 14 13 15 14 13 13 15 15 15 15 17 15 12 14 15 14 14 13 13 14 13 12 11 19 24 25 24 24 23 16 9 10 10 10 10 10 10 9 8 8
12 13 13 14 12 13 13 15 15 17 16 14 12 12 14 14 12 15 13 13 14 14 13 12 12 19 25 25 24 24 24 17 10 11 10 10 11 10 9 9 10 9
12 13 15 14 14 13 13 14 16 14 14 13 13 15 15 16 16 15 14 13 12 11 11 11 11 21 24 25 25 25 25 17 10 10 9 9 9 10 10 10 10 10
14 14 14 13 14 14 15 15 15 16 16 13 12 11 10 9 9 11 13 13 12 12 11 11 11 22 23 24 25 26 26 12 11 10 9 8 9 9 9 9 9 8
13 14 14 14 14 15 16 16 16 14 12 11 12 12 13 13 13 13 12 13 14 14 13 12 11 20 25 25 26 26 21 10 10 8 8 8 9 10 9 8 7 7
12 13 13 13 13 16 17 15 12 10 12 12 15 15 14 14 11 11 10 11 14 15 14 13 12 18 26 26 26 27 17 11 10 9 8 8 7 7 5 5 7 12
4 6 9 11 14 14 13 13 14 14 11 11 11 11 11 10 10 10 10 10 11 12 15 13 12 16 27 25 26 26 17 9 9 9 9 8 7 6 6 5 7 8
5 6 7 9 10 8 8 9 7 8 10 12 10 9 10 10 10 10 12 11 10 11 11 11 11 11 18 27 25 26 22 11 9 10 10 9 8 8 7 7 7 6
Wind_Direction
203 203 206 202 207 202 191 189 190 190 192 190 192 194 192 191 176 184 185 177 179 175 174 173 170 168 165 161 159 153 158 158 159 162 155 145 144 147 155 160 158 166
205 204 205 207 210 207 203 194 189 189 190 190 193 186 186 176 183 180 180 178 176 178 171 169 171 170 165 163 162 158 158 160 165 173 153 149 151 149 159 163 165 167
202 200 203 205 207 206 204 197 190 191 187 190 182 181 181 180 175 178 178 176 175 173 173 173 171 171 167 163 163 162 164 163 168 174 158 158 152 155 165 157 156 166
205 204 204 208 207 205 198 194 200 193 183 178 190 184 175 174 172 174 175 176 175 176 175 172 174 170 168 167 163 166 167 170 171 166 158 151 156 152 157 150 151 157
205 206 206 205 204 198 189 198 200 198 193 191 171 173 173 171 173 173 174 177 177 176 174 175 173 173 168 168 168 164 170 169 173 168 161 157 156 150 154 147 155 174
206 206 206 203 198 193 196 202 201 196 193 184 189 173 177 173 173 177 177 177 179 176 176 174 174 172 172 171 170 173 169 169 174 165 160 158 156 154 154 156 163 177
205 203 204 200 195 194 199 201 198 196 196 192 161 186 178 177 179 179 178 177 175 177 176 176 174 174 176 172 172 171 172 168 168 167 161 161 154 156 158 160 169 177
206 202 198 194 198 195 197 198 197 196 192 177 189 186 180 183 181 177 177 175 176 178 178 176 176 175 174 172 172 170 171 171 172 167 165 159 158 164 164 165 167 179
203 196 191 195 196 198 200 197 196 190 182 190 191 184 183 183 182 178 177 177 177 178 176 177 177 175 176 175 175 173 172 173 173 170 169 165 167 172 168 163 172 184
201 196 192 195 198 201 202 198 188 186 181 188 189 183 183 185 178 177 176 179 180 179 179 176 174 175 174 178 176 174 173 172 171 174 172 170 169 166 166 169 178 185
202 195 196 198 203 203 204 194 188 182 179 185 181 184 187 178 179 176 178 180 184 182 178 176 176 171 172 176 177 175 173 170 172 172 171 169 166 164 166 169 178 188
199 195 200 201 203 203 200 192 185 181 183 184 182 183 178 183 180 180 181 183 182 180 177 175 172 173 175 175 173 171 170 172 170 169 166 163 163 167 166 172 179 185
199 199 202 203 202 200 194 186 184 185 182 184 181 179 177 178 184 182 185 180 178 173 177 174 171 171 172 173 172 171 171 170 167 163 163 161 168 167 167 170 178 185
203 205 204 203 198 193 188 187 185 184 186 182 174 178 182 181 178 180 179 177 176 175 174 169 168 171 173 173 172 171 169 169 167 164 164 164 164 166 168 173 182 190
207 207 203 196 192 189 186 186 187 185 179 178 180 181 180 181 176 172 169 175 175 175 171 170 172 176 175 172 169 171 170 169 169 168 164 164 164 168 174 176 185 196
206 199 194 192 191 190 190 188 183 179 179 178 181 180 176 173 173 175 174 173 172 173 172 174 178 176 178 177 174 168 169 167 165 166 164 159 161 168 178 186 193 197
200 198 192 194 195 191 187 181 181 177 177 177 176 175 174 174 173 172 177 178 176 174 176 179 180 177 178 180 178 175 168 167 166 167 165 163 169 171 176 185 194 200
198 194 193 196 187 190 183 181 172 173 177 177 175 176 177 170 175 181 178 176 176 177 179 180 179 180 182 181 179 177 172 167 165 165 167 169 171 175 178 184 191 194
195 192 194 189 191 186 179 172 176 176 178 177 183 180 167 176 183 174 178 175 175 176 182 181 179 183 183 182 180 178 174 167 166 163 166 171 174 179 181 183 186 196
192 191 192 192 185 180 177 179 179 184 183 180 170 167 178 178 174 178 175 178 180 180 179 179 178 187 185 183 181 178 174 166 166 166 169 172 176 179 180 185 191 198
190 190 192 187 183 179 177 181 184 181 175 177 175 178 177 180 179 179 181 179 178 177 176 180 185 188 187 185 182 178 174 164 166 167 170 174 177 180 183 189 198 198
192 191 190 184 179 179 181 184 183 182 180 174 171 176 178 171 178 178 175 177 176 174 175 181 183 191 188 185 183 181 175 164 168 170 166 166 175 181 186 191 195 205
193 190 189 185 181 180 186 186 182 181 175 167 170 177 176 180 181 181 178 175 175 177 178 181 182 193 189 185 184 181 179 157 162 160 162 160 169 175 184 195 197 200
195 190 188 184 182 188 188 187 181 174 175 173 177 174 180 183 173 173 178 180 179 181 182 178 182 192 188 184 182 183 171 157 163 159 153 154 150 163 162 183 203 204
210 196 192 188 191 194 184 180 180 180 173 170 178 175 176 165 170 173 175 180 187 185 182 180 178 189 186 184 182 182 170 156 159 158 158 162 162 160 178 193 209 214
183 194 197 195 199 186 182 182 164 159 168 173 174 170 167 169 172 174 176 183 180 181 186 182 179 185 185 184 182 181 170 159 157 162 165 162 160 174 180 195 202 210